#timestamp,LO_Frequency,Hit,StdDev 
1543064415.8,286047000.2,N
1543064435.6,286047002.7,N
1543064455.5,286047000.6,N
1543064475.3,286046998.3,N
1543064495.1,286046998.8,N
1543064515.9,286046999.3,N
1543064535.7,286047000.8,N
1543064555.6,286046998.8,N
1543064575.4,286046998.3,N
1543064595.2,286047000.2,N
1543064615.1,286046999.9,N
1543064616.0,286046999.9,N
1543064635.8,286046999.8,N
1543064655.6,286047000.7,N
1543064675.5,286047000.1,N
1543064695.3,286046998.2,N
1543064715.2,286046998.3,N
1543064735.9,286046998.2,N
1543064755.7,286047000.9,N
1543064775.6,286047000.1,N
1543064795.4,286047001.0,N
1543064815.2,286047002.2,N
1543064835.1,286047002.3,N
1543064836.0,286047002.3,N
1543064855.8,286047002.7,N
1543064875.7,286047001.9,N
1543064895.5,286047001.4,N
1543064915.3,286047003.8,N
1543064935.2,286047002.7,N
1543064955.9,286047001.7,N
1543064975.7,286047002.0,N
1543064995.6,286047002.4,N
1543065015.4,286047001.8,N
1543065035.3,286047002.1,N
1543065055.1,286047000.2,N
1543065056.0,286047000.2,N
1543065075.8,286046999.8,N
1543065095.7,286046999.7,N
1543065115.5,286047000.6,N
1543065135.3,286047000.5,N
1543065155.2,286046999.3,N
1543065175.0,286046999.4,N
1543065175.9,286046999.4,N
1543065195.8,286047000.8,N
1543065215.6,286047001.0,N
1543065235.4,286046999.7,N
1543065255.3,286047000.3,N
1543065275.1,286046999.8,N
1543065295.8,286047002.7,N
1543065315.7,286047000.3,N
1543065335.5,286047001.1,N
1543065355.4,286046998.3,N
1543065375.2,286046998.1,N
1543065395.0,286046998.4,N
1543065395.9,286046998.4,N
1543065415.8,286046999.1,N
1543065435.6,286046997.0,N
1543065455.4,286046996.6,N
1543065475.3,286046996.7,N
1543065495.1,286046998.9,N
1543065515.9,286046998.7,N
1543065535.7,286046998.7,N
1543065555.5,286047000.3,N
1543065575.4,286047000.9,N
1543065595.2,286047000.5,N
1543065615.0,286046998.4,N
1543065615.9,286046998.4,N
1543065635.8,286046999.5,N
1543065655.6,286046999.1,N
1543065675.5,286046999.6,N
1543065695.3,286046996.7,N
1543065715.1,286046999.2,N
1543065735.9,286046996.7,N
1543065755.7,286046996.6,N
1543065775.5,286046995.3,Y
1543065795.4,286046998.5,P
1543065815.2,286046999.1,P
1543065835.1,286046998.3,P
1543065836.0,286046998.3,Y
1543065855.8,286047000.7,P
1543065875.6,286047001.1,N
1543065895.5,286046999.0,N
1543065915.3,286046999.3,N
1543065935.1,286046998.9,N
1543065955.9,286046999.0,N
1543065975.7,286046999.2,N
1543065995.6,286047000.8,N
1543066015.4,286046999.7,N
1543066035.2,286047000.2,N
1543066055.1,286047000.5,N
1543066056.0,286047000.5,N
1543066075.8,286047002.2,N
1543066095.6,286047000.3,N
1543066115.5,286046998.2,N
1543066135.3,286047000.5,N
1543066155.2,286047000.8,N
1543066175.9,286047001.0,N
1543066195.7,286047000.5,N
1543066215.6,286047000.9,N
1543066235.4,286047002.8,N
1543066255.2,286046998.2,N
1543066275.1,286046999.9,N
1543066276.0,286046999.9,N
1543066295.8,286047000.8,N
1543066315.7,286046996.7,Y
1543066335.5,286046999.6,P
1543066355.3,286046999.1,P
1543066375.2,286046997.3,P
1543066395.0,286046996.7,Y
1543066395.9,286046996.7,P
1543066415.8,286046999.6,N
1543066435.6,286046996.9,N
1543066455.4,286046996.5,N
1543066475.3,286046999.3,N
1543066495.1,286046997.8,N
1543066515.8,286046999.5,N
1543066535.7,286046996.6,N
1543066555.5,286046999.6,N
1543066575.3,286046999.1,N
1543066595.2,286047000.7,N
1543066615.0,286046998.1,N
1543066615.9,286046998.1,N
1543066635.8,286047000.6,N
1543066655.6,286047000.8,N
1543066675.4,286046998.1,N
1543066695.3,286047000.2,N
1543066715.1,286046998.1,N
1543066735.8,286046998.6,N
1543066755.7,286046998.3,N
1543066775.5,286047000.9,N
1543066795.4,286047000.9,N
1543066815.2,286047000.1,N
1543066835.0,286047003.6,N
1543066835.9,286047003.6,N
1543066855.8,286047004.4,N
1543066875.6,286047001.5,N
1543066895.5,286047002.2,N
1543066915.3,286047004.4,N
1543066935.1,286047003.0,N
1543066955.9,286047001.6,N
1543066975.7,286046999.8,N
1543066995.5,286046998.3,N
1543067015.4,286047000.7,N
1543067035.2,286047001.1,N
1543067055.1,286046998.2,N
1543067056.0,286046998.2,N
1543067075.8,286047001.1,N
1543067095.6,286046996.6,N
1543067115.5,286046999.5,N
1543067135.3,286046997.2,N
1543067155.1,286046996.8,N
1543067175.9,286046997.4,N
1543067195.7,286046997.8,N
1543067215.6,286046997.4,N
1543067235.4,286046996.8,N
1543067255.2,286046997.4,N
1543067275.1,286046996.7,N
1543067276.0,286046996.7,N
1543067295.8,286046997.3,N
1543067315.6,286046996.8,N
1543067335.5,286046997.3,N
1543067355.3,286046997.1,N
1543067375.2,286046996.9,N
1543067395.9,286046996.6,N
1543067415.7,286046996.9,N
1543067435.6,286046999.1,N
1543067455.4,286046998.5,N
1543067475.2,286047000.4,N
1543067495.1,286046998.7,N
1543067496.0,286046998.7,N
1543067515.8,286046998.6,N
1543067535.7,286046999.8,N
1543067555.5,286047000.6,N
1543067575.3,286046999.0,N
1543067595.2,286046998.5,N
1543067615.9,286047001.2,N
1543067635.7,286046998.8,N
1543067655.6,286046998.3,N
1543067675.4,286046999.3,N
1543067695.3,286046999.2,N
1543067745.1,286046997.9,E
1543067755.0,286047000.8,N
1543067755.9,286047000.8,P
1543067775.8,286047000.1,P
1543067795.6,286047002.8,Y
1543067815.5,286047002.4,P
1543067835.3,286047002.4,N
1543067855.1,286047001.4,N
1543067875.9,286047002.8,Y
1543067895.7,286047001.0,P
1543067915.5,286047000.9,N
1543067935.4,286047004.4,P
1543067955.2,286047003.0,N
1543067975.1,286047003.5,N
1543067976.0,286047003.5,N
1543067995.8,286047002.3,N
